Kingman, AZ

2:55 AM MST on March 30, 2017 (GMT -0700)
Kingman

Weather History for KIGM - November, 2012

Change the Weather History Date:

Thursday, November 1, 2012

  Actual Average Record
Temperature  
Mean Temperature 63 °F 56 °F  
Max Temperature 78 °F 71 °F 87 °F (1921)
Min Temperature 47 °F 42 °F 28 °F (1943)
Degree Days  
Heating Degree Days 2 9  
Month to date heating degree days 2 9  
Since 1 July heating degree days 88 148  
Cooling Degree Days 0 0  
Month to date cooling degree days 0 0  
Year to date cooling degree days 2297 2092  
Growing Degree Days 12 (Base 50)    
Moisture  
Dew Point 14 °F    
Average Humidity 16    
Maximum Humidity 23    
Minimum Humidity 9    
Precipitation  
Precipitation 0.00 in 0.03 in 0.82 in (1987)
Month to date precipitation 0.00 0.03  
Year to date precipitation 6.88 7.03  
Sea Level Pressure  
Sea Level Pressure 29.86 in    
Wind  
Wind Speed 9 mph (South)    
Max Wind Speed 21 mph    
Max Gust Speed 26 mph    
Visibility 10 miles    
Events      
T = Trace of Precipitation, MM = Missing Value Source: NWS Daily Summary

Daily Weather History Graph

Daily Weather History Graph

Search for Another Location

Airport or City:

Trip Planner

Search our weather history database for the weather conditions in past years. The results will help you decide how hot, cold, wet, or windy it might be!

Date:

Astronomy

Nov. 01, 2012 Rise Set
Actual Time 6:57 AM MST 5:40 PM MST
Civil Twilight 6:31 AM MST 6:06 PM MST
Nautical Twilight 6:01 AM MST 6:36 PM MST
Astronomical Twilight 5:31 AM MST 7:06 PM MST
Moon 7:45 PM MST (11/1) 9:29 AM MST (11/1)
Length of Visible Light 11h 35m
Length of Day
10h 42m
Waning Gibbous, 92% of the Moon is Illuminated
Nov 1
Waning Gibbous
Nov 6
Last Quarter
Nov 13
New
Nov 20
First Quarter
Nov 28
Full

Hourly Weather History & Observations

Time (MST) Temp. Dew Point Humidity Pressure Visibility Wind Dir Wind Speed Gust Speed Precip Events Conditions
12:51 AM 52.0 °F 10.9 °F 19% 29.88 in 10.0 mi SE 10.4 mph - N/A   Clear
1:51 AM 55.0 °F 10.9 °F 17% 29.87 in 10.0 mi SE 13.8 mph - N/A   Clear
2:51 AM 55.0 °F 12.0 °F 18% 29.86 in 10.0 mi SE 12.7 mph - N/A   Clear
3:51 AM 55.9 °F 14.0 °F 19% 29.86 in 10.0 mi SE 12.7 mph - N/A   Clear
4:51 AM 51.1 °F 10.9 °F 20% 29.88 in 10.0 mi SE 12.7 mph - N/A   Clear
5:51 AM 48.0 °F 10.0 °F 22% 29.89 in 10.0 mi SE 12.7 mph - N/A   Clear
6:51 AM 52.0 °F 10.9 °F 19% 29.90 in 10.0 mi South 9.2 mph - N/A   Clear
7:51 AM 55.0 °F 14.0 °F 20% 29.91 in 10.0 mi SSE 3.5 mph - N/A   Clear
8:51 AM 62.1 °F 14.0 °F 15% 29.92 in 10.0 mi South 3.5 mph - N/A   Clear
9:51 AM 70.0 °F 14.0 °F 12% 29.91 in 10.0 mi Calm Calm - N/A   Clear
10:51 AM 73.9 °F 15.1 °F 11% 29.90 in 10.0 mi Calm Calm - N/A   Clear
11:51 AM 78.1 °F 15.1 °F 9% 29.88 in 10.0 mi SSW 13.8 mph 21.9 mph N/A   Clear
12:51 PM 75.9 °F 15.1 °F 10% 29.86 in 10.0 mi SW 18.4 mph - N/A   Clear
1:51 PM 77.0 °F 14.0 °F 9% 29.83 in 10.0 mi SSW 13.8 mph - N/A   Clear
2:51 PM 75.9 °F 16.0 °F 10% 29.82 in 10.0 mi SW 18.4 mph 21.9 mph N/A   Clear
3:51 PM 75.9 °F 15.1 °F 10% 29.81 in 10.0 mi SW 15.0 mph - N/A   Clear
4:51 PM 75.0 °F 16.0 °F 11% 29.83 in 10.0 mi SW 16.1 mph - N/A   Clear
5:51 PM 66.0 °F 17.1 °F 15% 29.85 in 10.0 mi South 6.9 mph - N/A   Clear
6:51 PM 62.1 °F 16.0 °F 17% 29.86 in 10.0 mi South 8.1 mph - N/A   Clear
7:51 PM 57.0 °F 16.0 °F 20% 29.86 in 10.0 mi South 6.9 mph - N/A   Clear
8:51 PM 55.9 °F 16.0 °F 21% 29.85 in 10.0 mi South 5.8 mph - N/A   Clear
9:51 PM 55.9 °F 16.0 °F 21% 29.84 in 10.0 mi SW 3.5 mph - N/A   Clear
10:51 PM 57.0 °F 17.1 °F 21% 29.83 in 10.0 mi SW 5.8 mph - N/A   Clear
11:51 PM 57.0 °F 17.1 °F 21% 29.83 in 10.0 mi Calm Calm - N/A   Clear